EW9296 Weather Reports


Display with metric or nautical units.
time (UTC)temp
F
wind
direction
speed
MPH
gust
MPH
rain 1hr
in
rain 24hr
in
rain mn
in
humidity
%
barometer
mb
20260502163014 44 321 1.0 7.0 0.00 0.00 0.00 53 1016.7
20260502161510 44 260 2.0 9.0 0.00 0.00 0.00 53 1016.8
20260502151504 43 321 2.0 8.0 0.00 0.00 0.00 51 1016.8
20260502130105 38 333 1.0 5.0 0.00 0.00 0.00 69 1017.1
20260502123111 36 23 0.0 5.0 0.00 0.00 0.00 75 1017.0
20260502121543 35 26 0.0 6.0 0.00 0.00 0.00 76 1017.0
20260502114540 34 309 0.0 0.0 0.00 0.00 0.00 80 1016.9
20260502113037 33 305 0.0 4.0 0.00 0.00 0.00 81 1016.8
20260502111534 32 351 0.0 0.0 0.00 0.00 0.00 82 1016.8
20260502110044 32 355 0.0 4.0 0.00 0.00 0.00 83 1016.6
20260502104530 32 9 0.0 0.0 0.00 0.00 0.00 82 1016.5
20260502103032 32 9 0.0 0.0 0.00 0.00 0.00 81 1016.5
20260502101526 33 9 0.0 0.0 0.00 0.00 0.00 80 1016.4
20260502091518 34 9 0.0 0.0 0.00 0.00 0.00 76 1016.1
20260502071501 38 326 0.0 0.0 0.00 0.00 0.00 68 1015.5
20260502064559 38 326 0.0 0.0 0.00 0.00 0.00 67 1015.6
20260502063102 39 330 0.0 0.0 0.00 0.00 0.00 65 1015.7
20260502061556 39 35 0.0 0.0 0.00 0.00 0.00 64 1015.8
20260502054552 39 268 0.0 0.0 0.00 0.00 0.00 65 1015.9
20260502053052 39 5 0.0 0.0 0.00 0.00 0.00 63 1015.9
20260502051551 40 360 0.0 0.0 0.00 0.00 0.00 64 1015.8
20260502050048 40 360 0.0 0.0 0.00 0.00 0.00 63 1015.8
20260502044546 40 322 0.0 0.0 0.00 0.00 0.00 62 1015.6
20260502043050 40 324 0.0 0.0 0.00 0.00 0.00 62 1015.5
20260502041548 40 317 0.0 0.0 0.00 0.00 0.00 61 1015.4
20260502040041 40 355 0.0 4.0 0.00 0.00 0.00 62 1015.4
20260502034540 40 315 0.0 0.0 0.00 0.00 0.00 62 1015.3
20260502033045 40 44 0.0 4.0 0.00 0.00 0.00 62 1015.2
20260502031538 41 46 0.0 2.0 0.00 0.00 0.00 63 1015.2
20260502030038 41 49 2.0 6.0 0.00 0.00 0.00 63 1015.2
20260502024545 41 355 0.0 2.0 0.00 0.00 0.00 61 1015.2
20260502023037 41 5 1.0 6.0 0.00 0.00 0.00 61 1015.0
20260502021535 42 336 1.0 7.0 0.00 0.00 0.00 61 1015.0
20260502020033 42 281 1.0 6.0 0.00 0.00 0.00 61 1014.8
20260502014534 42 355 1.0 5.0 0.00 0.00 0.00 61 1014.6
20260502013030 42 255 0.0 0.0 0.00 0.00 0.00 62 1014.4
20260502011530 42 287 0.0 5.0 0.00 0.00 0.00 63 1014.2
20260502010033 42 250 0.0 0.0 0.00 0.00 0.00 66 1014.1
20260502004545 42 250 0.0 0.0 0.00 0.00 0.00 66 1014.1
20260502003026 43 277 0.0 1.0 0.00 0.00 0.00 67 1014.1
20260502001529 43 5 1.0 4.0 0.00 0.00 0.00 66 1013.9
20260502000029 43 360 0.0 4.0 0.00 0.00 0.00 65 1013.9
20260501234524 43 355 0.0 5.0 0.00 0.00 0.00 65 1013.8
20260501233022 44 273 1.0 4.0 0.00 0.00 0.00 65 1013.7
20260501231522 44 306 1.0 7.0 0.00 0.00 0.00 62 1013.7
20260501230026 44 287 1.0 5.0 0.00 0.00 0.00 65 1013.6
20260501224521 44 360 0.0 7.0 0.00 0.00 0.00 63 1013.5
20260501223021 44 282 1.0 7.0 0.00 0.00 0.00 64 1013.5
20260501221520 44 320 1.0 5.0 0.00 0.00 0.00 63 1013.5
20260501220019 44 277 0.0 6.0 0.00 0.00 0.00 63 1013.4
20260501214519 44 328 1.0 4.0 0.00 0.00 0.00 64 1013.4
20260501213030 44 257 2.0 7.0 0.00 0.00 0.00 63 1013.4
20260501211516 45 323 2.0 6.0 0.00 0.00 0.00 64 1013.2
20260501210033 45 291 2.0 6.0 0.00 0.00 0.00 61 1013.2
20260501204521 46 340 2.0 9.0 0.00 0.00 0.00 60 1013.0
20260501203013 46 232 0.0 1.0 0.00 0.00 0.00 61 1013.0
20260501201518 46 294 2.0 8.0 0.00 0.00 0.00 61 1013.0
20260501200017 46 333 0.0 6.0 0.00 0.00 0.00 62 1013.0
20260501194516 46 348 0.0 5.0 0.00 0.00 0.00 61 1013.0
20260501193009 46 294 1.0 6.0 0.00 0.00 0.00 60 1012.8
20260501191509 47 342 2.0 7.0 0.00 0.00 0.00 63 1012.7
20260501190008 47 315 2.0 6.0 0.00 0.00 0.00 61 1012.7
20260501184507 47 307 0.0 4.0 0.00 0.00 0.00 60 1012.4
20260501183007 47 309 1.0 6.0 0.00 0.00 0.00 56 1012.4
20260501181506 48 261 2.0 7.0 0.00 0.00 0.00 59 1012.3
20260501180006 47 12 3.0 10.0 0.00 0.00 0.00 60 1012.4
20260501174505 46 5 4.0 7.0 0.00 0.00 0.00 60 1012.4
20260501173104 46 24 0.0 8.0 0.00 0.00 0.00 59 1012.4